Knoxville, TN

7:49 PM EDT on September 22, 2017 (GMT -0400)
McGhee Tyson

Weather History for KTYS - January, 2015

Change the Weather History Date:

Tuesday, January 13, 2015

  Actual Average Record
Temperature  
Mean Temperature 38 °F 38 °F  
Max Temperature 42 °F 47 °F 74 °F (1932)
Min Temperature 33 °F 29 °F -5 °F (1895)
Degree Days  
Heating Degree Days 27 27  
Month to date heating degree days 404 351  
Since 1 July heating degree days 1894 1784  
Cooling Degree Days 0 0  
Month to date cooling degree days 0 0  
Year to date cooling degree days 0 0  
Moisture  
Dew Point 35 °F    
Average Humidity 93    
Maximum Humidity 100    
Minimum Humidity 85    
Precipitation  
Precipitation T in 0.14 in 1.74 in (1892)
Month to date precipitation 2.12 1.78  
Year to date precipitation 2.12 1.78  
Snow  
Snow 0.00 in 0.10 in - ()
Month to date snowfall T 1.0  
Since 1 July snowfall T 1.8  
Snow Depth 0.00 in    
Sea Level Pressure  
Sea Level Pressure 30.32 in    
Wind  
Wind Speed 9 mph (North)    
Max Wind Speed 17 mph    
Max Gust Speed 20 mph    
Visibility 7 miles    
Events Rain    
T = Trace of Precipitation, MM = Missing Value Source: NWS Daily Summary

Daily Weather History Graph

Daily Weather History Graph

Search for Another Location

Airport or City:

Trip Planner

Search our weather history database for the weather conditions in past years. The results will help you decide how hot, cold, wet, or windy it might be!

Date:

Astronomy

Jan. 13, 2015 Rise Set
Actual Time 7:45 AM EST 5:43 PM EST
Civil Twilight 7:17 AM EST 6:11 PM EST
Nautical Twilight 6:46 AM EST 6:43 PM EST
Astronomical Twilight 6:15 AM EST 7:13 PM EST
Moon 12:46 AM EST (1/13) 12:17 PM EST (1/13)
Length of Visible Light 10h 53m
Length of Day
9h 57m
Waning Gibbous, 47% of the Moon is Illuminated
Jan 13
Waning Gibbous
Jan 20
New
Jan 26
First Quarter
Feb 3
Full
Feb 11
Last Quarter

Hourly Weather History & Observations

Time (EST) Temp. Windchill Dew Point Humidity Pressure Visibility Wind Dir Wind Speed Gust Speed Precip Events Conditions
12:53 AM 39.9 °F 32.1 °F 37.9 °F 93% 30.26 in 10.0 mi North 13.8 mph - 0.00 in   Light Drizzle
1:33 AM 39.9 °F 33.9 °F 37.9 °F 93% 30.26 in 5.0 mi North 9.2 mph - 0.00 in   Light Drizzle
1:53 AM 39.0 °F 34.0 °F 37.9 °F 96% 30.27 in 4.0 mi North 6.9 mph - 0.00 in   Light Drizzle
2:53 AM 37.9 °F 31.5 °F 37.0 °F 97% 30.29 in 5.0 mi North 9.2 mph - 0.00 in   Light Drizzle
3:53 AM 37.9 °F 31.5 °F 37.0 °F 97% 30.29 in 5.0 mi North 9.2 mph - 0.00 in   Light Drizzle
4:53 AM 37.0 °F 29.8 °F 36.0 °F 96% 30.30 in 4.0 mi North 10.4 mph - 0.00 in   Light Drizzle
5:53 AM 37.0 °F 30.4 °F 36.0 °F 96% 30.30 in 8.0 mi North 9.2 mph - 0.00 in   Light Drizzle
6:53 AM 37.0 °F 28.9 °F 35.1 °F 93% 30.32 in 10.0 mi NNE 12.7 mph - 0.00 in   Overcast
7:53 AM 37.0 °F 29.8 °F 34.0 °F 89% 30.34 in 10.0 mi NNE 10.4 mph - N/A   Overcast
8:08 AM 37.0 °F 28.1 °F 34.0 °F 89% 30.33 in 10.0 mi NNE 15.0 mph - N/A   Overcast
8:53 AM 36.0 °F 28.5 °F 34.0 °F 93% 30.36 in 10.0 mi NNE 10.4 mph - N/A   Overcast
9:22 AM 36.0 °F 27.1 °F 33.1 °F 89% 30.34 in 10.0 mi NNE 13.8 mph - 0.00 in   Overcast
9:41 AM 36.0 °F 27.5 °F 34.0 °F 93% 30.34 in 10.0 mi NNE 12.7 mph - N/A   Overcast
9:53 AM 36.0 °F 26.3 °F 34.0 °F 93% 30.35 in 10.0 mi NNE 16.1 mph - N/A   Overcast
10:53 AM 37.0 °F 29.3 °F 34.0 °F 89% 30.37 in 10.0 mi North 11.5 mph - N/A   Overcast
11:18 AM 37.0 °F 29.3 °F 34.0 °F 89% 30.36 in 10.0 mi North 11.5 mph - N/A   Overcast
11:53 AM 37.0 °F 29.3 °F 34.0 °F 89% 30.35 in 10.0 mi NNE 11.5 mph - N/A   Overcast
12:53 PM 37.0 °F 29.8 °F 34.0 °F 89% 30.33 in 10.0 mi NNE 10.4 mph - N/A   Overcast
1:53 PM 37.9 °F 30.5 °F 34.0 °F 86% 30.31 in 10.0 mi NNE 11.5 mph - N/A   Overcast
2:53 PM 37.9 °F 32.1 °F 34.0 °F 86% 30.30 in 10.0 mi NNE 8.1 mph - N/A   Overcast
3:53 PM 37.9 °F 32.7 °F 34.0 °F 86% 30.31 in 3.0 mi North 6.9 mph - 0.00 in Rain Light Rain
4:53 PM 37.0 °F 30.4 °F 34.0 °F 89% 30.32 in 5.0 mi North 9.2 mph - 0.00 in   Overcast
5:53 PM 36.0 °F 29.6 °F 34.0 °F 93% 30.31 in 3.0 mi NNE 8.1 mph - 0.00 in Rain Light Rain
6:09 PM 36.0 °F 30.3 °F 34.0 °F 93% 30.29 in 3.0 mi North 6.9 mph - 0.00 in Rain Light Rain
6:32 PM 35.1 °F 29.3 °F 34.0 °F 96% 30.30 in 2.5 mi North 6.9 mph - 0.00 in Rain Light Rain
6:53 PM 35.1 °F 31.0 °F 34.0 °F 96% 30.33 in 2.5 mi NNW 4.6 mph - 0.00 in Rain Light Rain
7:32 PM 34.0 °F 28.0 °F 33.1 °F 96% 30.30 in 4.0 mi North 6.9 mph - 0.00 in Rain Light Rain
7:53 PM 34.0 °F 28.0 °F 33.1 °F 96% 30.32 in 4.0 mi North 6.9 mph - 0.00 in Rain Light Rain
8:36 PM 34.0 °F 28.8 °F 33.1 °F 96% 30.32 in 3.0 mi NNW 5.8 mph - 0.00 in Rain Light Rain
8:53 PM 34.0 °F 28.0 °F 33.1 °F 96% 30.34 in 3.0 mi NNW 6.9 mph - 0.00 in Rain Light Rain
9:14 PM 33.1 °F 26.9 °F 32.0 °F 96% 30.32 in 2.5 mi NNW 6.9 mph - 0.00 in Rain Light Rain
10:53 PM 33.1 °F 27.7 °F 32.0 °F 96% 30.33 in 2.5 mi North 5.8 mph - 0.00 in Rain Light Rain
11:53 PM 33.1 °F 30.0 °F 33.1 °F 100% 30.32 in 3.0 mi North 3.5 mph - 0.00 in   Light Drizzle